Wetbulb
66.90 63.46 63.23 61.85 56.70 58.53 56.08 56.49 61.29 59.46 59.44 62.39 62.79 61.18 62.35 65.52 64.43 62.38 74.29 72.92 73.44 76.26 77.04 76.97 77.62 78.16 78.48 78.49 78.01 77.60 76.97 76.79 77.09 76.82 76.64 76.59 76.77 76.85 76.62 76.69 76.01 75.46 74.24 73.03 72.49 72.22 72.33 72.86 73.09
62.51 61.62 61.52 59.55 54.84 54.02 56.15 59.71 59.30 61.23 62.01 62.48 62.37 61.25 61.46 63.75 69.71 71.08 71.24 72.96 74.28 76.71 77.36 76.87 77.24 77.80 78.35 78.30 77.97 77.39 77.22 76.87 76.87 76.77 76.67 76.69 76.74 76.77 76.29 76.12 75.60 74.75 73.16 72.41 71.37 70.78 71.34 72.05 72.65
62.63 60.95 57.20 56.17 54.91 53.47 54.19 60.47 60.29 60.66 61.90 62.30 61.12 62.42 63.59 64.65 68.42 72.11 73.86 73.92 74.79 76.13 76.98 77.54 77.12 77.47 78.10 78.10 77.82 77.54 77.29 77.02 77.02 76.84 76.54 76.62 76.82 76.71 76.41 75.99 75.20 73.78 72.71 71.86 70.75 70.12 69.79 69.71 70.00
58.72 58.81 57.82 52.72 52.91 56.51 57.69 60.42 59.56 59.79 61.70 62.54 62.03 59.79 63.69 67.88 67.89 72.55 73.98 74.47 75.05 75.04 75.91 76.31 76.86 77.31 77.69 77.82 77.10 77.41 77.37 77.14 77.04 76.82 76.59 76.67 76.59 76.56 76.38 75.69 74.85 73.70 72.71 71.42 70.74 70.17 69.55 68.73 68.10
57.48 56.36 52.43 52.39 52.88 56.08 57.61 60.76 59.66 59.06 59.94 60.33 61.23 60.20 61.94 68.40 71.28 73.94 74.04 74.42 74.89 74.78 75.36 77.32 76.51 77.04 77.31 77.47 77.47 77.39 77.14 76.96 76.96 76.94 76.77 76.67 76.51 76.03 75.69 74.96 74.11 73.40 72.35 71.65 71.15 70.31 69.61 68.84 68.01
53.82 54.82 48.26 48.90 52.33 55.45 56.08 59.00 59.39 59.18 59.54 60.10 60.15 59.67 62.74 68.94 71.10 72.80 74.38 74.73 75.48 74.90 75.71 77.41 76.23 76.46 76.68 77.08 77.00 76.90 76.70 76.78 76.78 76.76 76.59 76.31 75.93 75.29 74.66 74.09 73.73 73.14 72.36 71.72 70.91 70.33 70.01 68.98 68.06
51.91 51.88 49.09 49.82 50.09 52.84 55.08 58.33 56.77 58.21 58.84 58.24 60.22 57.96 63.00 64.68 69.15 73.22 74.17 74.80 74.91 75.42 75.64 76.73 75.07 76.03 76.46 76.47 76.49 76.49 76.31 76.32 76.32 76.20 76.03 76.08 75.38 74.74 74.19 73.64 73.12 72.94 72.23 71.67 70.89 70.30 69.81 69.45 69.00
53.23 52.01 48.81 49.59 48.23 48.99 54.74 56.95 57.68 56.80 56.84 59.36 58.68 57.54 60.13 61.85 65.49 72.67 73.55 73.91 73.93 74.70 75.39 76.29 75.30 74.43 74.57 75.45 76.12 76.14 75.98 76.09 76.01 75.95 75.73 75.55 74.81 74.37 73.87 74.03 73.57 72.74 72.01 71.68 71.34 70.68 70.22 70.05 70.52
55.67 49.57 45.96 47.87 48.45 50.24 54.23 52.39 56.42 57.80 55.55 56.75 58.48 59.57 61.76 60.91 64.89 68.34 71.31 72.21 72.60 73.36 74.93 76.52 75.29 74.79 74.41 73.89 74.94 75.61 75.61 75.73 75.77 75.44 75.28 74.84 73.56 74.01 73.95 72.72 74.01 73.15 72.42 71.74 71.45 71.51 71.40 71.37 71.63
51.84 48.60 48.48 51.35 51.81 50.92 52.47 52.46 53.89 52.87 53.37 54.50 56.04 58.91 61.00 61.23 62.04 66.35 68.74 69.40 70.94 71.74 73.03 75.70 76.15 75.69 75.15 73.93 75.56 73.56 73.64 74.16 74.64 74.58 74.86 73.78 73.20 73.61 71.66 73.26 74.06 73.24 72.97 72.50 72.48 72.69 72.39 71.77 70.89
51.88 48.59 51.91 51.72 52.59 52.94 51.91 51.80 52.97 51.61 49.93 53.38 54.39 57.26 59.82 60.38 61.47 64.11 66.91 68.75 69.85 71.60 72.43 74.05 76.75 77.72 75.64 74.30 74.90 73.77 72.63 72.31 72.69 74.00 76.09 75.42 73.04 73.14 71.86 73.13 72.83 72.67 73.21 71.71 72.24 72.32 72.11 73.06 74.45
49.15 51.72 52.08 52.36 53.09 52.09 51.22 53.07 51.48 52.08 52.53 54.37 54.86 56.50 57.18 58.63 59.91 62.34 65.16 66.88 68.26 70.85 72.67 73.91 76.30 77.47 77.81 75.49 74.18 74.48 71.83 72.22 71.91 73.06 76.86 76.21 73.42 74.92 74.48 71.77 72.75 73.54 72.31 73.01 73.34 71.78 73.15 74.64 75.33
50.01 51.11 52.02 52.51 52.43 52.01 52.42 50.80 50.96 51.58 54.13 55.54 55.81 55.48 55.86 57.25 58.86 61.06 63.59 65.19 67.34 68.93 72.38 73.77 75.78 77.83 78.63 78.92 75.37 75.21 73.98 72.53 72.55 73.28 75.17 74.18 72.88 74.72 73.89 74.24 72.21 73.01 72.46 72.43 72.23 71.76 73.46 74.76 75.44
51.87 51.12 51.27 51.58 51.41 51.77 50.21 50.58 51.49 52.58 54.81 54.58 55.24 55.29 56.18 57.70 58.26 58.90 60.69 62.90 64.71 68.25 72.61 74.02 75.04 79.05 77.78 78.01 78.93 76.66 76.87 74.06 73.39 72.89 74.19 75.68 74.26 75.75 72.83 73.54 72.73 72.47 72.32 71.86 72.13 72.43 73.43 74.83 74.50
51.29 48.60 50.24 50.73 51.25 50.73 52.06 48.79 49.40 53.24 54.59 54.04 54.54 55.34 56.30 57.16 58.46 58.71 60.39 62.06 65.31 66.73 71.60 74.14 75.40 77.59 78.96 77.87 77.97 77.62 75.57 74.87 73.97 74.28 76.62 76.72 76.62 77.34 75.65 73.08 72.84 72.25 73.49 74.74 73.77 72.57 73.56 71.80 72.35
48.58 48.97 45.55 50.06 50.90 51.20 50.66 45.72 51.20 54.09 53.50 53.10 53.84 54.52 55.24 56.65 57.51 59.18 60.28 61.68 63.47 65.44 68.44 71.82 73.11 75.28 77.75 78.42 77.96 76.88 76.01 75.88 74.81 74.62 73.88 76.60 75.89 76.27 75.72 74.11 73.90 74.75 74.32 73.24 72.36 71.26 70.31 70.86 71.48
47.87 43.84 45.85 47.26 51.01 49.50 48.65 46.74 50.89 53.33 53.18 52.96 53.89 54.36 54.87 55.79 57.63 59.65 60.23 61.34 62.64 64.33 66.99 70.06 74.07 74.41 76.08 78.54 77.80 78.05 78.67 76.28 75.91 76.19 75.17 77.49 77.17 75.98 74.94 75.38 74.68 75.42 74.76 74.59 73.30 71.46 71.01 70.70 73.07
44.33 44.98 45.95 45.88 49.09 48.85 47.65 47.16 50.12 52.51 52.71 53.01 54.07 54.67 55.14 55.54 56.47 58.93 60.17 61.41 62.11 64.17 65.87 67.55 70.82 76.49 77.73 77.46 78.08 76.78 76.26 76.19 76.22 75.62 75.92 77.68 76.19 75.24 76.90 74.79 76.13 76.70 74.15 73.18 72.46 72.78 71.26 71.85 72.94
47.13 45.60 45.18 47.60 49.18 47.65 48.03 48.49 50.21 52.31 52.64 52.58 53.45 54.22 55.10 55.66 57.63 58.88 59.71 60.84 61.95 63.75 64.68 66.68 68.17 73.94 75.66 74.95 74.18 74.55 73.91 74.79 74.98 75.66 77.50 77.47 76.22 75.58 77.10 74.66 75.81 76.10 74.76 73.79 75.07 72.86 73.74 71.60 75.00
46.62 44.81 45.13 47.52 49.35 48.82 48.19 47.86 50.48 51.75 52.29 53.36 53.53 54.08 54.89 55.83 56.95 57.99 59.27 60.43 61.22 63.04 65.10 66.46 67.64 70.61 72.41 72.51 75.42 75.00 75.14 73.95 74.29 74.78 76.81 76.72 76.50 77.15 77.03 76.05 75.08 75.97 73.34 74.92 74.91 74.16 70.84 72.44 73.98
46.36 45.00 45.51 45.43 48.15 49.35 48.04 46.43 48.48 51.18 52.45 53.18 54.02 54.77 55.22 55.58 56.06 57.30 58.12 59.47 60.45 61.32 63.51 66.23 68.38 70.29 71.74 73.16 73.13 76.16 75.50 74.90 72.55 72.69 73.80 76.01 76.69 76.38 75.53 76.23 75.52 75.44 74.42 72.38 74.42 74.67 74.68 70.40 72.39
43.93 47.99 46.88 45.45 44.78 41.50 48.45 40.70 47.70 50.14 50.89 52.22 53.36 54.26 54.87 55.48 56.43 57.14 57.85 59.14 60.32 60.92 62.18 63.62 66.02 68.74 69.56 72.62 70.55 72.05 70.93 70.20 70.78 71.38 72.28 75.21 77.11 76.51 75.84 75.55 75.72 74.84 74.01 73.21 74.80 75.29 74.73 73.71 69.32
45.17 48.24 46.84 46.51 45.17 44.86 44.85 42.83 46.47 50.60 49.44 51.52 53.26 54.05 55.18 56.15 57.04 56.96 57.69 59.41 60.35 61.42 61.61 63.15 66.46 66.99 68.09 69.96 71.97 69.12 70.22 68.76 70.36 71.69 73.75 75.45 76.70 77.08 76.06 75.91 75.14 75.61 75.85 75.73 75.99 75.63 75.27 72.54 70.64
49.19 46.94 47.24 47.16 45.75 40.19 44.98 44.60 44.96 47.80 50.10 51.95 53.85 54.93 55.58 55.88 56.57 57.27 58.40 59.66 60.03 60.78 61.70 63.19 64.65 66.19 67.22 67.51 69.03 71.15 71.42 71.51 69.73 70.19 70.45 71.73 73.81 75.44 75.91 75.11 75.36 76.42 76.55 76.05 75.23 75.52 75.12 74.23 72.58
48.25 45.61 39.78 38.90 39.76 39.03 47.09 44.76 46.97 51.07 52.29 52.68 53.10 54.20 55.89 56.09 55.77 55.74 56.68 57.39 58.57 59.74 60.77 61.54 62.69 63.72 65.72 66.21 66.75 67.24 69.69 71.08 72.47 71.86 69.56 69.95 71.15 72.74 74.60 74.97 74.14 74.29 76.15 76.11 75.36 74.97 74.22 74.41 72.80
46.39 45.31 38.82 32.75 35.64 39.74 46.41 41.58 46.75 52.93 53.36 53.56 53.41 54.29 55.06 54.96 56.07 55.70 56.54 57.00 57.65 58.72 59.81 60.43 61.09 61.51 63.25 64.76 65.78 66.78 67.47 65.94 66.47 69.32 69.46 70.40 69.16 70.59 68.66 73.25 72.05 71.71 74.09 75.08 75.44 73.80 73.25 74.53 73.48
45.43 42.66 47.15 41.41 43.29 40.11 42.59 46.40 50.67 52.64 52.64 52.64 52.67 53.74 53.57 54.38 55.18 55.91 56.38 56.88 57.49 58.41 59.37 59.80 60.33 61.11 61.76 62.94 64.78 65.69 66.68 67.50 66.96 69.45 70.39 70.46 72.11 71.84 74.34 68.66 68.34 68.91 70.01 73.71 74.46 72.68 73.04 73.62 73.57
47.10 48.35 39.38 41.27 33.94 33.50 39.60 42.31 43.84 48.06 50.03 51.51 51.75 52.43 53.47 54.03 54.98 55.54 55.86 56.75 57.75 58.40 59.24 59.71 59.75 59.90 60.88 61.55 62.65 63.70 64.96 66.38 67.23 69.14 69.53 70.42 72.46 73.24 73.37 69.22 66.37 65.53 69.74 70.57 72.57 72.46 73.04 72.56 70.45
44.02 42.27 43.30 42.88 41.33 35.21 34.80 39.41 49.07 48.56 50.08 51.01 51.39 51.68 51.81 52.59 54.22 54.84 55.67 56.43 56.57 57.57 57.84 58.52 58.78 58.63 59.09 60.61 61.33 62.12 63.44 64.58 65.51 66.84 67.76 69.59 71.52 71.26 69.68 69.24 68.96 68.27 69.26 68.04 68.38 68.80 68.39 68.12 70.39
46.93 44.22 43.52 37.00 37.68 40.36 38.97 39.62 51.44 50.50 51.59 51.53 51.49 51.43 52.55 53.44 53.71 54.31 54.22 54.72 55.17 56.04 57.14 57.56 58.16 58.16 58.68 59.05 59.20 60.32 62.19 63.84 64.04 64.61 65.69 67.50 67.96 68.74 67.40 64.83 65.35 63.23 62.68 62.99 62.92 63.71 64.31 65.28 66.32
MSLP
1008.59 1006.59 1005.81 1004.57 1003.48 1001.15 998.80 997.24 996.09 996.76 997.74 998.18 998.79 998.26 997.58 997.58 998.27 999.47 1001.42 1001.84 1002.55 1004.17 1005.70 1006.92 1007.62 1008.02 1008.56 1009.10 1009.54 1009.93 1010.36 1010.72 1011.00 1011.27 1011.55 1011.85 1012.19 1012.54 1012.83 1013.08 1013.28 1013.41 1013.65 1013.79 1013.79 1013.96 1014.12 1014.18 1014.34
1008.05 1006.70 1005.39 1003.61 1002.12 999.67 997.95 997.04 997.67 997.38 998.11 999.19 999.19 998.75 998.47 998.47 999.35 1000.76 1001.52 1002.48 1003.02 1004.51 1005.89 1006.53 1007.73 1008.05 1008.60 1009.03 1009.54 1010.06 1010.42 1010.81 1011.14 1011.44 1011.74 1012.06 1012.37 1012.65 1012.93 1013.18 1013.43 1013.62 1013.86 1014.01 1014.14 1014.24 1014.37 1014.47 1014.61
1008.23 1006.65 1004.99 1002.84 1001.33 999.28 998.52 998.37 998.09 998.80 999.50 999.42 998.99 999.36 998.97 999.21 1000.38 1000.40 1001.86 1002.77 1003.31 1004.52 1005.70 1006.57 1007.74 1008.36 1008.67 1009.21 1009.71 1010.14 1010.51 1010.85 1011.24 1011.64 1011.94 1012.28 1012.57 1012.85 1013.01 1013.25 1013.51 1013.73 1013.96 1014.16 1014.39 1014.52 1014.60 1014.75 1014.88
1006.97 1005.71 1004.86 1002.88 1000.36 999.31 999.00 999.55 999.63 999.69 999.83 999.91 999.38 999.24 1000.07 1000.57 1000.60 1000.91 1002.46 1002.89 1003.53 1004.21 1005.28 1007.30 1007.94 1008.27 1008.78 1009.16 1009.67 1010.28 1010.63 1010.97 1011.36 1011.70 1012.13 1012.51 1012.75 1013.02 1013.28 1013.44 1013.63 1013.82 1014.02 1014.25 1014.45 1014.64 1014.76 1014.95 1015.14
1007.17 1005.47 1003.50 1001.93 1000.79 999.52 1000.15 1000.06 1000.68 999.96 999.76 1000.00 1000.20 999.42 999.95 1001.24 1001.63 1001.81 1002.51 1002.93 1003.36 1003.98 1004.95 1007.15 1008.32 1008.76 1009.04 1009.34 1009.69 1010.11 1010.64 1011.00 1011.42 1011.81 1012.23 1012.59 1012.90 1013.21 1013.50 1013.68 1013.90 1014.01 1014.19 1014.31 1014.43 1014.63 1014.91 1015.16 1015.26
1005.80 1005.11 1003.84 1001.81 1000.66 1000.05 1000.82 1000.80 1001.09 1000.56 1000.08 1000.29 1000.61 1000.37 1000.28 1001.47 1001.65 1002.02 1002.48 1002.99 1003.36 1004.11 1005.07 1006.94 1008.30 1008.91 1009.30 1009.70 1010.00 1010.30 1010.50 1010.91 1011.44 1011.79 1012.24 1012.74 1013.16 1013.51 1013.83 1014.03 1014.19 1014.30 1014.47 1014.59 1014.72 1014.83 1015.02 1015.24 1015.35
1005.34 1003.95 1002.90 1002.10 1001.28 1000.50 1000.79 1001.19 1001.14 1000.94 1000.53 1000.74 1001.04 1000.92 1000.41 1001.52 1002.37 1002.26 1002.60 1003.16 1003.52 1004.37 1005.21 1006.80 1008.01 1008.76 1009.45 1009.81 1010.16 1010.47 1010.66 1010.99 1011.36 1011.81 1012.36 1012.86 1013.20 1013.54 1013.91 1014.24 1014.43 1014.43 1014.59 1014.87 1015.08 1015.18 1015.31 1015.40 1015.43
1005.32 1004.13 1002.78 1002.11 1001.11 1000.42 1000.78 1001.05 1001.80 1001.48 1001.36 1001.51 1002.25 1001.38 1001.01 1002.11 1002.81 1002.58 1002.51 1002.86 1003.42 1004.32 1005.04 1006.53 1007.51 1008.25 1008.94 1009.57 1010.27 1010.46 1010.87 1011.09 1011.47 1011.88 1012.31 1012.82 1013.34 1013.61 1013.80 1014.09 1014.35 1014.64 1014.72 1014.77 1014.94 1015.15 1015.27 1015.40 1015.47
1005.33 1004.06 1002.86 1001.93 1001.60 1001.33 1001.26 1001.42 1002.17 1002.17 1002.70 1002.44 1002.07 1001.83 1001.65 1002.58 1002.73 1002.36 1002.38 1002.71 1003.01 1003.78 1004.62 1005.64 1006.79 1007.45 1008.14 1008.60 1009.82 1010.59 1010.88 1011.18 1011.35 1011.78 1012.29 1012.71 1012.52 1013.00 1013.42 1013.44 1013.85 1014.27 1014.58 1014.74 1014.82 1014.99 1015.14 1015.16 1015.10
1004.65 1003.51 1002.26 1001.57 1001.30 1001.51 1001.88 1002.10 1002.26 1002.73 1003.02 1002.42 1002.43 1002.25 1002.28 1002.51 1002.41 1002.13 1002.23 1002.40 1002.81 1003.41 1004.16 1004.94 1006.07 1006.87 1007.48 1007.66 1008.78 1009.95 1010.09 1010.71 1010.94 1011.03 1011.43 1011.91 1011.91 1011.93 1012.17 1012.58 1013.49 1013.91 1014.24 1014.42 1014.57 1014.72 1014.80 1014.82 1013.83
1004.13 1003.06 1001.80 1001.64 1002.64 1002.62 1002.36 1002.82 1003.66 1003.40 1003.26 1002.40 1002.06 1001.78 1001.91 1002.20 1002.35 1002.08 1001.81 1001.76 1002.26 1002.83 1003.73 1004.50 1005.70 1006.37 1006.96 1007.19 1007.91 1008.99 1009.17 1009.74 1010.24 1010.66 1010.96 1011.26 1011.15 1011.36 1012.08 1012.28 1012.87 1013.01 1013.55 1013.37 1013.76 1013.93 1013.96 1013.09 1012.32
1003.58 1002.92 1002.58 1002.10 1002.52 1003.02 1002.82 1002.89 1002.86 1002.80 1002.88 1002.65 1002.88 1002.80 1002.58 1002.44 1002.26 1001.78 1001.81 1001.57 1001.89 1001.72 1002.65 1004.06 1005.37 1006.16 1006.76 1006.86 1007.57 1008.11 1008.29 1008.84 1009.44 1009.91 1010.61 1010.63 1011.09 1010.98 1011.28 1011.45 1011.54 1012.29 1012.23 1012.36 1012.21 1011.99 1012.28 1012.37 1012.51
1003.14 1002.89 1002.58 1002.65 1002.81 1003.02 1003.06 1002.94 1002.79 1002.56 1002.53 1002.74 1002.69 1003.05 1003.15 1003.06 1002.49 1002.27 1002.05 1001.90 1001.82 1002.01 1002.45 1002.67 1004.87 1006.07 1006.55 1006.82 1006.83 1007.29 1007.78 1008.21 1008.54 1009.24 1010.08 1010.38 1010.70 1010.62 1011.17 1011.06 1010.74 1010.94 1011.23 1011.39 1011.85 1011.76 1011.76 1012.12 1012.06
1003.00 1003.25 1002.53 1002.78 1002.70 1002.80 1002.87 1002.54 1002.41 1002.31 1002.46 1002.46 1002.33 1002.44 1002.38 1002.22 1002.41 1002.63 1002.79 1003.08 1002.92 1002.91 1002.93 1002.77 1004.48 1005.68 1006.38 1006.65 1006.74 1006.76 1007.17 1007.25 1007.81 1008.26 1009.06 1010.21 1010.23 1010.24 1010.64 1011.13 1011.07 1010.62 1010.68 1010.82 1010.97 1011.48 1011.43 1011.64 1011.46
1003.23 1003.21 1002.68 1002.36 1002.17 1002.18 1002.44 1001.92 1001.45 1001.64 1001.96 1001.96 1002.06 1002.05 1002.04 1001.97 1002.31 1002.33 1002.39 1002.48 1002.86 1003.02 1003.24 1003.76 1004.60 1005.37 1006.13 1006.50 1006.84 1006.75 1006.96 1007.14 1007.33 1007.65 1008.12 1009.16 1009.79 1009.66 1010.29 1010.51 1010.73 1010.56 1010.74 1010.92 1011.01 1011.15 1011.60 1011.56 1011.43
1003.44 1002.79 1001.67 1000.64 1000.97 1001.38 1002.02 1000.83 1000.29 1000.23 1001.39 1001.70 1001.96 1001.74 1001.81 1002.07 1002.18 1002.14 1002.31 1002.68 1002.96 1003.13 1003.16 1003.70 1003.88 1004.44 1005.62 1006.22 1006.53 1006.58 1006.73 1006.66 1006.89 1007.12 1007.67 1007.35 1008.57 1009.13 1009.21 1009.85 1009.78 1009.76 1010.06 1010.34 1010.81 1011.16 1010.84 1011.07 1011.07
1002.43 1001.34 1000.54 1000.01 1000.68 1001.30 1001.68 1000.61 1000.10 1000.98 1001.38 1001.55 1001.43 1001.48 1001.62 1001.84 1001.97 1002.31 1002.59 1002.72 1002.92 1003.16 1003.57 1003.79 1003.69 1004.08 1004.77 1005.72 1006.08 1006.28 1006.38 1006.65 1006.61 1006.48 1006.74 1007.17 1008.11 1008.78 1008.67 1007.93 1008.90 1008.75 1008.94 1009.70 1009.72 1010.20 1010.53 1010.52 1010.83
1000.74 1000.61 1000.48 999.77 1000.06 1001.39 1001.13 1000.73 1000.56 1000.50 1001.06 1001.20 1001.38 1001.46 1001.37 1001.47 1001.62 1001.97 1002.24 1002.65 1003.05 1003.41 1003.64 1004.22 1004.33 1004.13 1004.58 1005.06 1005.74 1005.59 1005.69 1005.85 1005.93 1005.95 1006.28 1006.98 1008.04 1008.37 1008.58 1008.11 1008.61 1008.74 1008.93 1009.48 1009.85 1009.85 1009.40 1009.67 1009.82
1001.24 1001.24 1000.46 1000.15 1000.29 1000.65 1000.84 1000.84 1000.45 1000.18 1000.22 1000.37 1000.63 1000.82 1001.03 1001.08 1001.25 1001.65 1002.00 1002.39 1003.12 1003.44 1003.76 1004.10 1004.43 1004.66 1004.43 1004.41 1004.36 1004.64 1004.56 1004.77 1005.12 1005.49 1005.84 1006.27 1006.85 1007.34 1007.60 1007.61 1007.94 1008.62 1008.71 1009.04 1009.44 1009.78 1009.87 1009.56 1009.45
1002.27 1001.96 1001.32 1000.99 1000.84 1001.04 1001.09 1000.56 1000.28 1000.04 999.93 1000.05 1000.16 1000.14 1000.24 1000.50 1000.87 1001.16 1001.50 1002.15 1002.59 1003.09 1003.55 1003.85 1003.99 1004.26 1004.43 1003.88 1004.16 1003.84 1003.63 1003.79 1004.09 1004.73 1005.13 1005.55 1006.05 1006.48 1006.52 1006.89 1007.10 1007.54 1008.09 1008.63 1008.74 1009.11 1009.22 1009.14 1009.50
1002.39 1002.05 1001.48 1001.12 1000.91 1000.97 1001.16 1000.28 1000.09 999.83 999.59 999.55 999.70 999.87 999.95 1000.10 1000.38 1000.73 1001.08 1001.73 1002.37 1002.83 1003.42 1003.50 1003.66 1003.79 1003.98 1004.13 1003.66 1003.65 1003.82 1003.63 1003.25 1003.48 1003.96 1004.55 1005.24 1005.64 1006.28 1006.28 1006.48 1006.45 1007.03 1007.07 1007.83 1008.17 1008.23 1008.22 1008.65
1001.82 1001.85 1001.76 1001.81 1001.63 1000.66 1000.33 998.80 998.35 998.26 998.19 998.23 998.59 999.11 999.68 999.87 1000.07 1000.55 1001.17 1001.96 1002.67 1003.02 1003.07 1003.12 1003.33 1003.59 1003.73 1003.88 1003.66 1003.32 1002.86 1002.69 1002.71 1002.61 1002.54 1003.20 1004.16 1004.86 1005.17 1005.56 1005.68 1005.92 1005.86 1006.02 1006.58 1006.89 1007.20 1007.74 1007.37
1001.94 1001.90 1001.92 1001.75 1001.52 1000.96 1000.18 999.12 997.87 997.48 997.31 997.38 997.89 998.66 999.11 999.45 1000.37 1001.19 1001.93 1002.51 1003.03 1003.12 1003.05 1003.01 1003.18 1003.44 1003.71 1003.83 1003.74 1003.35 1002.93 1002.46 1002.14 1002.06 1002.02 1002.33 1002.72 1003.52 1004.03 1004.15 1004.15 1004.27 1004.46 1004.64 1005.35 1006.11 1006.78 1006.67 1006.96
1002.33 1002.27 1002.34 1002.08 1001.44 999.89 999.39 998.45 997.15 996.57 996.33 996.50 997.09 997.92 998.75 1000.14 1001.22 1001.97 1002.72 1003.07 1003.09 1003.21 1003.08 1002.97 1002.97 1003.35 1003.59 1003.74 1003.61 1003.47 1003.20 1002.84 1002.14 1001.77 1001.70 1001.64 1001.48 1001.79 1002.10 1001.95 1002.47 1002.69 1003.23 1003.64 1004.46 1004.83 1005.72 1006.15 1006.30
1002.71 1002.73 1001.79 1000.94 999.97 998.32 998.14 997.16 996.17 996.08 996.66 997.15 997.76 998.27 999.59 1000.98 1001.66 1002.32 1002.98 1003.14 1003.37 1003.35 1003.47 1003.60 1003.41 1003.46 1003.47 1003.41 1003.35 1003.27 1003.13 1003.04 1002.67 1002.40 1001.73 1001.35 1000.53 999.47 1000.25 1001.75 1002.65 1002.71 1001.01 1001.33 1002.69 1004.15 1004.70 1005.25 1005.60
1002.30 1002.53 1002.27 1001.43 1000.56 998.99 998.47 997.34 996.76 996.61 996.87 997.74 998.46 999.26 1000.20 1001.23 1002.00 1002.80 1003.15 1003.28 1003.45 1003.55 1003.78 1003.66 1003.55 1003.45 1003.38 1003.29 1003.14 1003.02 1002.95 1002.63 1002.19 1001.84 1001.63 1000.96 1000.30 998.81 1000.44 999.69 1001.28 1002.70 1001.50 1000.77 1001.56 1002.73 1003.97 1004.36 1004.91
1003.52 1003.07 1003.45 1003.63 1003.03 1001.35 1000.01 998.54 997.21 996.53 996.55 997.88 999.13 999.97 1000.71 1001.70 1002.67 1002.94 1002.89 1003.14 1003.33 1003.56 1003.62 1003.80 1003.56 1003.54 1003.15 1002.92 1002.87 1002.84 1002.66 1002.39 1002.03 1001.66 1001.31 1000.40 1000.20 998.97 999.13 1001.38 1002.69 1002.62 1003.84 1001.81 1002.05 1002.22 1003.21 1003.45 1004.36
1004.32 1004.66 1005.38 1005.39 1003.95 1001.94 1000.33 999.05 998.01 998.54 998.31 998.75 999.91 1000.64 1001.43 1002.39 1002.77 1002.84 1002.90 1002.99 1003.17 1003.42 1003.49 1003.42 1003.67 1003.71 1003.22 1002.80 1002.62 1002.13 1002.04 1001.95 1001.63 1001.27 1000.91 1000.44 1000.00 999.10 999.14 999.60 1000.80 1003.07 1003.26 1001.22 1001.70 1001.89 1003.01 1002.93 1003.78
1004.89 1005.46 1005.65 1005.81 1005.16 1003.61 1001.85 1000.29 999.35 1000.10 1000.55 1000.57 1000.88 1001.64 1002.29 1002.92 1002.68 1002.97 1002.86 1002.79 1002.91 1002.93 1003.07 1003.33 1003.44 1003.55 1003.54 1003.07 1002.85 1002.26 1001.62 1001.55 1001.41 1001.12 1000.72 1000.24 1000.07 999.69 999.75 999.44 1000.29 1001.71 1000.09 1001.73 1002.25 1003.50 1002.78 1002.76 1003.25
1005.24 1005.37 1005.81 1006.51 1005.65 1004.59 1003.68 1001.97 1000.93 1001.29 1001.66 1001.96 1002.05 1002.56 1002.96 1002.80 1002.93 1003.02 1003.01 1003.07 1003.01 1002.74 1002.59 1002.71 1003.10 1003.25 1003.13 1003.36 1003.11 1002.52 1002.10 1001.27 1001.04 1001.04 1000.76 1000.29 1000.23 999.98 1000.04 1000.48 1000.34 1001.45 1001.29 1001.68 1002.01 1002.56 1001.53 1002.39 1003.74
Wind_Speed
19 13 10 10 9 9 17 19 3 6 4 4 3 9 11 12 16 7 10 10 17 19 19 17 14 15 14 12 13 13 13 13 13 13 12 12 11 11 10 9 9 9 8 8 9 8 8 8 7
14 15 10 10 10 14 13 13 3 2 9 2 5 6 7 8 12 10 13 10 15 18 17 18 14 15 14 14 13 13 14 13 13 13 12 12 11 11 11 10 9 8 8 7 7 7 7 7 6
16 13 11 12 14 16 5 13 5 8 2 9 3 6 6 6 2 9 16 13 15 16 17 17 15 13 15 14 12 13 14 14 13 12 12 11 10 10 10 9 9 9 8 7 7 6 6 6 4
8 9 8 11 17 17 5 13 5 7 4 4 7 5 3 9 2 6 14 14 14 15 17 20 15 15 15 14 14 12 13 14 13 13 11 10 10 9 8 9 9 9 8 8 7 6 5 4 3
7 8 12 16 19 16 6 3 5 8 3 4 3 4 3 10 6 11 13 12 13 15 15 18 14 13 13 14 15 15 14 14 14 13 11 10 9 9 9 9 8 8 8 7 7 6 5 4 3
9 9 12 15 19 14 4 7 9 10 3 3 9 4 9 8 9 9 10 9 11 13 14 16 15 13 14 13 13 14 15 15 13 13 12 9 8 7 6 6 6 6 6 6 5 5 5 3 3
14 14 18 20 18 17 12 13 8 12 10 6 6 10 8 12 5 5 6 7 10 13 12 14 16 14 13 13 13 13 12 13 13 12 10 10 10 8 6 4 4 5 5 4 3 4 3 4 4
10 13 18 18 18 18 10 12 9 8 10 5 2 8 2 12 4 8 9 10 11 12 13 14 15 16 14 13 12 13 13 13 11 11 11 10 9 8 8 7 6 4 4 4 4 4 4 5 6
12 11 13 18 14 15 15 4 13 2 10 8 10 9 9 5 2 9 10 10 11 11 13 14 16 16 15 15 13 12 13 13 13 12 11 11 9 11 13 10 14 9 5 5 5 5 6 7 10
12 13 19 14 9 7 15 5 11 4 13 17 14 12 8 8 7 11 12 10 11 12 13 13 14 15 15 12 14 13 13 12 12 13 14 10 11 9 12 13 14 11 9 8 9 9 9 10 10
16 18 13 4 5 8 11 8 9 12 16 16 15 13 11 8 8 10 13 15 12 12 11 12 13 13 15 12 11 8 8 9 9 13 11 11 9 8 8 7 8 9 12 9 11 10 9 11 5
17 16 17 9 6 10 12 13 15 13 14 14 5 10 11 11 14 13 15 14 13 16 15 13 14 12 12 10 10 10 10 10 9 12 12 8 7 7 7 7 10 8 8 9 8 5 5 4 5
16 18 12 13 11 12 13 14 14 15 11 13 13 10 13 14 10 8 8 13 13 8 14 14 13 12 11 10 10 9 10 10 12 11 12 10 10 7 8 8 8 8 8 8 7 7 5 7 7
12 17 16 11 15 15 15 16 16 15 12 16 12 13 15 14 14 10 9 9 8 10 7 10 11 13 14 13 12 10 9 12 11 11 12 13 10 8 10 9 8 7 8 7 8 7 6 8 7
14 12 14 16 16 16 13 18 20 16 13 13 13 13 13 10 12 11 11 8 6 8 9 9 11 11 12 13 11 8 10 11 11 9 13 15 13 10 10 10 9 9 7 7 6 6 5 6 6
14 17 17 18 21 17 13 17 16 20 15 13 16 15 12 12 14 13 12 9 9 8 8 13 12 14 15 13 11 10 12 11 10 11 9 16 16 15 13 9 11 10 10 10 9 9 9 7 7
15 14 19 15 12 8 12 14 19 4 8 11 13 11 13 14 14 11 12 11 10 9 8 11 11 12 13 14 12 12 12 11 11 11 12 14 17 17 11 13 10 12 11 9 10 9 8 6 4
16 19 16 15 10 10 16 17 16 10 14 15 15 14 15 12 12 12 12 9 8 7 5 6 10 9 10 10 11 11 12 12 12 12 12 15 14 17 14 11 11 8 9 9 10 8 9 8 9
18 14 16 12 6 8 12 16 17 15 15 14 15 16 15 15 13 12 13 8 8 7 5 6 9 10 9 10 11 11 12 12 12 12 14 14 14 17 15 12 12 10 10 11 10 9 10 9 7
13 16 17 16 13 13 15 19 17 16 15 17 17 17 16 16 15 13 13 12 11 9 9 8 8 8 10 10 9 10 10 13 12 12 12 14 15 16 16 15 13 13 11 12 11 12 10 10 8
17 17 17 17 14 9 16 19 20 18 23 21 18 18 16 16 16 14 11 9 7 6 10 10 9 9 8 11 10 9 10 10 11 12 11 13 16 16 17 16 14 13 14 13 13 13 15 11 9
17 17 17 15 15 15 17 16 16 12 14 13 14 15 16 18 17 12 4 6 9 10 11 11 8 8 9 10 11 13 12 13 13 13 12 13 16 17 18 18 16 15 13 14 13 12 12 12 10
17 15 12 15 16 18 19 14 15 17 16 16 13 11 12 6 6 4 5 7 10 11 11 11 9 8 9 9 10 11 13 12 12 12 13 11 12 17 18 19 20 18 13 14 13 13 14 11 11
13 9 14 16 16 19 20 20 16 16 17 10 9 14 6 5 3 3 6 8 10 9 10 11 9 8 9 10 11 11 13 13 12 12 12 12 13 14 21 22 19 18 16 14 15 14 13 13 10
13 13 12 16 16 18 20 21 14 7 9 10 13 8 11 5 3 5 7 9 8 9 6 8 9 9 10 11 11 12 12 13 14 13 13 14 13 15 17 20 17 15 18 17 15 13 13 13 12
19 18 14 22 19 18 20 18 13 16 3 4 4 2 2 4 3 4 8 7 10 8 10 11 10 10 10 10 11 11 12 11 11 13 13 13 14 17 3 7 18 20 17 16 14 12 12 11 10
15 17 15 15 19 19 18 26 21 24 18 13 12 11 5 3 6 9 9 9 9 10 10 11 11 12 13 11 9 10 11 13 13 14 14 12 16 17 12 15 9 7 22 14 14 12 11 8 8
16 12 8 8 7 17 14 16 6 12 11 5 7 7 5 5 9 11 10 11 8 9 10 9 8 13 14 11 11 11 9 12 13 12 14 15 14 16 16 3 12 21 23 17 14 8 10 9 8
14 12 17 17 15 11 16 12 7 6 4 6 5 3 5 8 10 12 13 14 14 12 10 9 8 8 12 12 11 12 11 10 12 12 14 13 12 14 11 6 15 24 17 5 5 5 7 8 9
15 19 15 6 10 13 11 8 11 7 11 6 8 8 11 13 14 14 14 15 13 13 10 10 9 10 9 10 13 11 13 13 8 8 11 12 14 14 10 11 13 15 13 10 10 9 7 6 13
Wind_Direction
286 293 294 264 241 231 251 239 23 94 188 85 360 273 344 350 16 37 114 116 127 127 148 155 137 137 140 146 151 151 152 154 151 148 150 150 148 148 141 137 136 128 123 121 116 117 117 114 113
296 295 270 273 250 241 227 246 169 214 20 40 242 235 238 74 61 106 130 123 139 132 149 157 144 141 143 145 150 156 155 155 153 153 155 155 153 149 147 143 135 129 127 122 122 123 120 115 119
263 273 279 238 237 252 302 317 24 45 248 242 225 307 44 79 59 117 97 140 137 145 156 145 146 142 142 144 146 153 155 154 155 156 157 159 153 148 146 144 141 140 137 135 132 122 116 117 131
275 228 240 259 252 233 126 230 20 238 160 266 338 193 144 32 75 70 132 144 142 155 158 137 148 146 146 148 157 153 156 153 155 155 159 160 154 147 146 146 150 149 148 146 135 125 121 131 153
236 269 256 244 244 265 295 17 300 276 320 255 241 236 113 81 78 121 141 151 156 152 153 149 144 146 148 149 151 153 156 152 155 154 157 159 154 151 154 156 158 155 156 150 142 137 140 154 169
231 236 240 250 244 255 209 273 260 272 291 252 241 312 96 118 114 131 146 157 159 146 148 145 145 149 149 154 156 157 154 153 155 155 157 154 145 142 151 157 161 156 155 152 151 150 158 175 193
243 226 242 245 250 252 216 234 254 255 262 262 16 262 116 110 73 112 142 145 147 145 153 149 169 162 153 158 159 158 154 155 156 157 153 145 144 143 147 161 170 158 148 154 162 168 185 210 228
247 262 260 254 259 257 234 230 243 268 257 46 262 252 150 73 342 171 178 162 162 158 157 157 175 177 181 175 168 162 161 158 158 153 148 146 149 158 163 156 177 172 167 172 182 200 216 230 239
233 240 248 244 252 252 247 226 255 242 293 272 263 282 346 354 207 222 195 176 178 168 166 166 176 178 188 183 176 172 172 170 160 161 162 158 200 184 172 193 146 166 180 202 210 225 236 238 239
223 226 239 244 243 240 276 226 291 233 248 242 239 240 252 245 247 232 190 198 192 178 181 173 180 177 190 189 170 198 190 200 201 194 184 207 213 202 207 167 161 169 185 209 217 222 227 234 251
218 249 251 247 269 270 256 219 239 241 254 269 258 236 227 251 254 245 238 205 194 185 189 190 182 175 195 199 171 192 194 197 200 207 200 198 197 205 209 163 182 190 192 207 199 203 221 229 268
236 238 261 278 229 235 249 251 254 246 249 259 251 292 299 268 252 233 231 231 201 189 183 182 175 187 194 196 188 189 200 189 195 198 195 194 220 203 201 226 198 197 183 213 211 225 224 253 244
223 254 229 257 252 249 256 251 257 251 240 243 244 214 239 243 263 296 296 301 296 164 214 172 184 193 192 230 194 200 203 190 194 189 191 210 206 196 208 223 232 187 217 187 224 221 217 215 223
209 236 253 233 240 234 244 251 236 238 246 239 238 236 230 224 221 217 225 251 292 291 246 171 194 183 201 207 232 193 200 203 202 195 190 204 211 197 201 218 220 231 224 215 206 219 206 213 234
259 253 243 240 239 240 239 251 245 240 245 219 239 230 243 236 241 238 250 254 229 256 234 212 214 201 197 210 220 227 215 222 197 207 188 186 216 209 209 211 212 218 224 243 251 235 216 244 235
240 239 251 234 218 224 230 260 252 221 210 234 243 243 235 241 244 242 243 253 274 277 261 223 238 201 204 218 215 220 221 212 220 205 234 185 192 216 186 222 209 211 204 203 216 216 218 216 239
219 249 225 241 176 236 201 255 234 108 227 248 243 236 238 232 227 241 249 255 259 258 250 278 223 235 207 206 224 216 230 226 213 217 216 195 202 211 221 194 221 209 193 213 199 205 217 214 237
226 214 236 261 177 194 247 235 260 197 216 225 234 242 247 242 240 242 243 242 281 283 285 257 284 237 230 213 210 233 221 223 229 224 208 200 214 221 219 223 225 219 214 222 222 216 196 196 189
294 286 285 278 228 253 268 271 269 257 247 247 245 236 242 243 248 242 244 226 262 274 272 245 230 246 241 225 223 215 229 219 221 227 226 208 212 222 220 220 219 206 224 228 199 211 217 205 191
261 258 258 261 266 263 267 264 265 261 254 248 255 254 242 243 242 242 236 233 240 237 267 275 268 233 243 228 238 248 225 230 221 218 218 217 215 219 215 210 216 206 213 224 211 204 213 211 200
249 256 266 272 277 231 257 265 256 250 249 251 246 258 257 258 259 260 264 253 267 273 274 270 267 271 237 253 251 229 246 263 243 223 220 212 216 213 222 208 218 202 207 205 206 200 208 202 190
256 245 250 260 261 260 251 271 274 266 265 254 234 226 249 252 244 241 277 329 298 285 282 275 276 277 261 246 252 259 250 229 232 239 232 212 205 219 215 221 207 226 202 223 193 202 206 233 205
256 280 280 271 263 270 258 258 259 247 240 234 229 265 254 247 44 355 321 317 303 293 281 265 267 275 277 276 278 267 241 260 246 246 253 237 215 205 221 210 214 208 202 206 192 201 203 205 234
288 255 253 250 253 252 252 255 260 260 261 256 225 216 153 99 25 310 311 300 289 316 316 315 307 283 281 277 274 261 271 282 274 252 248 241 220 206 211 218 204 200 205 205 200 207 201 219 234
231 252 265 256 243 256 249 245 258 291 301 281 293 277 114 115 315 351 317 309 325 303 329 324 323 311 297 287 277 271 268 270 266 269 266 265 255 226 200 204 212 215 202 191 198 195 211 206 221
255 245 251 281 281 290 305 281 269 274 210 281 259 296 33 192 344 287 281 294 298 322 312 318 310 313 304 293 287 283 276 265 259 250 252 266 253 258 54 273 223 223 221 199 184 196 205 210 218
283 279 293 322 286 272 273 273 266 261 240 188 205 232 269 332 307 288 295 304 310 311 311 313 314 308 302 300 287 283 280 264 269 272 273 258 250 271 239 191 190 222 275 223 204 202 194 200 213
264 269 276 249 270 265 267 274 283 346 322 24 156 222 217 293 294 300 304 295 307 306 299 299 330 315 308 306 305 288 290 288 280 266 257 262 271 266 274 161 139 218 241 220 213 186 199 193 213
266 253 262 260 267 267 279 272 358 317 1 310 263 266 275 275 287 297 299 305 309 299 298 310 314 310 310 325 311 303 288 276 288 274 266 262 258 255 263 164 131 211 182 167 154 297 289 260 210
248 268 249 239 258 257 286 273 291 87 247 220 310 317 286 294 312 306 311 313 300 297 307 305 303 300 292 301 313 316 313 300 259 265 268 262 250 248 226 225 199 203 199 199 208 209 190 220 257